Tracking 19489 objects as of 22-Jan-2019
HD Live streaming from Space Station
objects crossing your sky now

FENGYUN 1C DEB

Track FENGYUN 1C DEB now!
10-day predictions


NORAD ID: 30484
Int'l Code: 1999-025AGW
Perigee: 611.3 km
Apogee: 701.9 km
Inclination: 99.0 °
Period: 97.7 minutes
Semi major axis: 7027 km
RCS: 0.019 m2 (small)
Launch date: May 10, 1999
Source: People's Republic of China (PRC)
Launch site: Taiyaun Space Center, China (TSC)

Note: This is SATELLITE DEBRIS
aabbcc
Your satellite tracking list
Your tracking list is empty




NASA's NSSDC Master Catalog

Two Line Element Set (TLE):
1 30484U 99025AGW 19020.99342180 +.00001772 +00000-0 +27261-3 0  9990
2 30484 099.0302 025.8595 0064495 125.0688 235.6589 14.73645662634922
Source of the keplerian elements: AFSPC